Tracking 20242 objects as of 24-Jan-2020
HD Live streaming from Space Station
objects crossing your sky now

FENGYUN 1C DEB

Track FENGYUN 1C DEB now!
10-day predictions


NORAD ID: 29871
Int'l Code: 1999-025FR
Perigee: 745.6 km
Apogee: 845.1 km
Inclination: 99.1 °
Period: 100.6 minutes
Semi major axis: 7166 km
RCS: 0.051 m2 (small)
Launch date: May 10, 1999
Source: People's Republic of China (PRC)
Launch site: Taiyaun Space Center, China (TSC)

Note: This is SATELLITE DEBRIS
aabbcc
Your satellite tracking list
Your tracking list is empty




NASA's NSSDC Master Catalog

Two Line Element Set (TLE):
1 29871U 99025FR  20023.53281687 +.00000214 +00000-0 +97212-4 0  9991
2 29871 099.0592 227.9901 0069422 280.2502 132.0949 14.31042725678788
Source of the keplerian elements: AFSPC